Location: Madingley
(52.2167°N, 0.0500°E)
Time: 08:28:34
(UTC+00:00)

ARIANE 5 R/B - Pass Details

Date: 15 May 2026
Orbit: 614 x 648 km, 98.0° (Epoch: 14 September)

Event Time Altitude Azimuth Distance (km) Brightness Sun altitude
Exits shadow 22:52:41 33° 144° (SE) 1,090 3.3 -17.4°
Maximum altitude 22:54:36 67° 72° (ENE) 702 2.8 -17.5°
Drops below altitude 10° 22:59:03 10° 350° (N) 2,055 6.5 -17.7°
Sets 23:01:17 0° 348° (NNW) 2,972 7.8 -17.7°
